This demonstration page uses our WeatherBlox Daily Observations layout. Learn more.

Left ArrowRight Arrow

44.89941, -97.11507

Hourly Observations for January 31, 2016

Temp ( °F °C ) Dew Point ( °F °C ) Humidity (%) Winds ( mph kmh ) Pressure ( in mb ) Visibility ( mi km ) Precip ( " mm )
12:53 am 00:53 Cloudy 34 1.1 31 -0.6 89 89 NW 5 7 29.62 1003 10 16 0.00 0.00
1:53 am 01:53 Mostly Cloudy 32 0 29 -1.7 88 88 NW 3 6 29.63 1004 10 16 0.00 0.00
2:53 am 02:53 Mostly Clear 30 -1.1 28 -2.2 92 92 Calm 29.64 1004 10 16 0.00 0.00
3:53 am 03:53 Cloudy with Mist and Fog 28 -2.2 26 -3.3 92 92 SW 5 7 29.66 1004 5 8 0.00 0.00
4:53 am 04:53 Cloudy 29 -1.7 26 -3.3 89 89 WNW 6 9 29.64 1004 10 16 0.00 0.00
5:53 am 05:53 Cloudy 29 -1.7 26 -3.3 89 89 NW 6 9 29.65 1004 10 16 0.00 0.00
6:53 am 06:53 Cloudy 29 -1.7 27 -2.8 92 92 Calm 29.66 1004 10 16 0.00 0.00
7:53 am 07:53 Cloudy 29 -1.7 27 -2.8 92 92 Calm 29.68 1005 10 16 0.00 0.00
8:53 am 08:53 Sunny 30 -1.1 27 -2.8 88 88 WNW 7 11 29.69 1005 10 16 0.00 0.00
9:53 am 09:53 Sunny 32 0 28 -2.2 85 85 W 6 9 29.70 1006 10 16 0.00 0.00
10:53 am 10:53 Mostly Sunny 31 -0.6 27 -2.8 85 85 W 5 7 29.72 1007 10 16 0.00 0.00
11:53 am 11:53 Sunny 32 0 29 -1.7 88 88 WSW 7 11 29.72 1006 10 16 0.00 0.00
12:40 pm 12:40 Mostly Sunny 34 1.1 29 -1.7 82 82 W 12 19 29.74 1007 10 16 0.00 0.00
12:53 pm 12:53 Mostly Sunny 34 1.1 29 -1.7 82 82 WNW 12 19 29.72 1007 10 16 0.00 0.00
1:11 pm 13:11 Mostly Cloudy 34 1.1 29 -1.7 82 82 WNW 10 17 29.74 1007 10 16 0.00 0.00
1:38 pm 13:38 Partly Cloudy 35 1.7 29 -1.7 78 78 WNW 8 13 29.74 1007 10 16 0.00 0.00
1:53 pm 13:53 Sunny 35 1.7 29 -1.7 78 78 WNW 9 15 29.72 1007 10 16 0.00 0.00
2:53 pm 14:53 Sunny 36 2.2 29 -1.7 76 76 W 12 19 29.74 1007 10 16 0.00 0.00
3:53 pm 15:53 Sunny 38 3.3 29 -1.7 70 70 W 9 15 29.76 1008 10 16 0.00 0.00
4:53 pm 16:53 Sunny 37 2.8 29 -1.7 73 73 W 7 11 29.78 1009 10 16 0.00 0.00
5:53 pm 17:53 Clear 33 0.6 29 -1.7 85 85 WSW 7 11 29.80 1009 10 16 0.00 0.00
6:53 pm 18:53 Clear 30 -1.1 27 -2.8 88 88 SW 7 11 29.82 1010 10 16 0.00 0.00
7:53 pm 19:53 Clear 29 -1.7 27 -2.8 92 92 WSW 9 15 29.84 1010 10 16 0.00 0.00
8:53 pm 20:53 Clear 28 -2.2 25 -3.9 88 88 WSW 7 11 29.85 1011 10 16 0.00 0.00
9:53 pm 21:53 Mostly Clear 26 -3.3 25 -3.9 96 96 Calm 29.86 1011 10 16 0.00 0.00
10:28 pm 22:28 Mostly Cloudy 25 -3.9 22 -5.6 88 88 SW 6 9 29.91 1013 10 16 0.00 0.00
10:53 pm 22:53 Cloudy 27 -2.8 24 -4.4 89 89 WSW 5 7 29.88 1012 10 16 0.00 0.00
11:15 pm 23:15 Mostly Cloudy 26 -3.3 23 -5 88 88 SW 7 11 29.94 1014 10 16 0.00 0.00
11:53 pm 23:53 Partly Cloudy 25 -3.9 22 -5.6 88 88 W 7 11 29.90 1012 10 16 0.00 0.00

Powered by AerisWeather